Showing default

FOSSASAT2E20 (TAT-O), 63003

Orbit data source: Space-Track

FOSSASAT2E20 (TAT-O), 63003 is a payload satellite owned by Fossa Systems (ES) in SSO that was launched on Tue, 14 Jan 2025 UTC via an FALCON 9 launch vehicle from the Air Force Western Test Range (AFWTR). Payload-class satellites include a variety of spacecraft equipped with specific instruments for various scientific and technological missions. These include communications satellites like Starlink; space stations such as the ISS; scientific satellites like the Hubble; Earth observation satellites from companies like Planet Labs, Umbra, and HawkEye 360; GPS; miniature CubeSats for education and research; and military/defense satellites.

Loading next visibility...
Identifier
63003, 2025-009DN
Orbit
SSO
Country
Flag of ESES / SPN
Related business
Manufacturer
Fossa Systems
Mission
Operational Commercial Communications
Bus & Motor
CUBESAT 3U, Unknown motor
Mass
4 kg wet, 4 kg dry
Launch date (UTC)
2025-01-14 (9 months ago)
Launch vehicle
FALCON 9
Launch site
Air Force Western Test Range (AFWTR)
Object type
Payload
Rocket body
Debris
Shape & HBR
Box + 2 Pan, 0.4 m
Radar Cross Section
0.035 m², Medium (>0.1 m² and < 1m²)

Expand to show TLE details & history
Last TLE update: 13 hours ago

TLE from 13 hours ago
0 FOSSASAT2E20 (TAT-O)
1 63003U 25009DN  25286.47290978  .00020439  00000-0  90434-3 0  9998
2 63003  97.3441   2.1506 0004663 118.2002 241.9705 15.21691948 98886
Epoch: 2025-10-13T11:20Z
TLE epoch observation values (Epoch: 2025-10-13T11:20:59.404Z)
Latitude
-0.00005°
Longitude
169.62789°
Altitude
505.34 km
Speed
7.611 km/s
True Right ascension
00h 08m 36s
True Declination
0° 00' 00"
Sunlit
Object was in full shadow at epoch
Visualization orbit readout
Latitude
Unknown
Longitude
Unknown
Altitude
Unknown
Speed
Unknown
Apparent Right ascension
Unknown
Apparent Declination
Unknown
Sunlit
N/A
Visualization observer readout
Local Sidereal Time
18:49:01
Azimuth
Unknown
Elevation
Unknown
Doppler factor
Unknown
Orbital elements
Apogee altitude
500.904 km
Perigee altitude
494.492 km
Semi-major axis
6,875.835 km
Eccentricity
0.00047
Inclination
97.3441°
RAAN
2.1506°
Arg. of periapsis
118.2002°
True anomaly
241.92335°
Mean anomaly
241.9705°
Eccentric anomaly
241.94692°
Mean motion
3.80676 °/min
Orbital period
94.57 mins
BSTAR
0.00090434
Loading maneuver chart data...
Computing Atmospheric mass density...
Loading historical data...
Loading historical data...
Loading historical data...
Loading historical data...
Loading historical data...
Loading historical data...
Loading historical data...

Documentation

Showing up to 5 results
|